Regional Weather Roundup
Issued by NWS

Home | Current Version | Previous Version | Graphics & Text | Print | Product List | Glossary On
Versions: 1 2 3 4 5 6 7 8 9 10 11 12 13 14 15 16 17 18 19 20 21 22 23 24 25 26 27 28 29 30 31 32 33 34 35 36 37 38 39 40 41 42 43 44 45 46 47 48 49 50
000
ASUS45 KABQ 160901
RWRNM
WEATHER ROUNDUP FOR NEW MEXICO
NATIONAL WEATHER SERVICE ALBUQUERQUE NM
300 AM MDT TUE SEP 16 2014

NOTE: "FAIR" MEANS FEW OR NO CLOUDS BELOW 12,000 FEET AGL WITH NO
       SIGNIFICANT WEATHER OR OBSTRUCTIONS TO VISION.

      THIS PRODUCT IS RELEASED AS TWO VERSIONS.  ONE VERSION NEAR
      THE TOP OF THE HOUR CONTAINING PRELIMINARY DATA FROM ALBUQUERQUE
      AND OTHER STATIONS.  A FINAL VERSION WITH ADDITIONAL DATA IS
      ISSUED ABOUT 10 MINUTES AFTER THE HOUR.

NMZ501-503-504-510>518-161000-
NORTHWEST PLATEAU/NORTHCENTRAL MOUNTAINS

CITY           SKY/WX    TMP DP  RH WIND       PRES   REMARKS
FARMINGTON     CLEAR     62  46  55 N5        30.27F
LOS ALAMOS     MOCLDY    58  53  83 S8        30.42F
SANTA FE       MOCLDY    59  53  80 S5        30.37F
ANGEL FIRE     FAIR      38  35  89 E3        30.50S

$$
NMZ402-403-502-505>509-161000-
WESTCENTRAL MOUNTAINS/SOUTHWEST MOUNTAINS

CITY           SKY/WX    TMP DP  RH WIND       PRES   REMARKS
GALLUP         CLOUDY    60  52  74 E6        30.32F
GRANTS         CLOUDY    61  52  72 CALM      30.38S
SILVER CITY    LGT RAIN  64  63  94 S8        30.30S

$$
NMZ407-409-411-412-161000-
SOUTHERN DESERTS

CITY           SKY/WX    TMP DP  RH WIND       PRES   REMARKS
LORDSBURG      DRIZZLE   64  61  88 SE7       30.20S
DEMING         LGT RAIN  67  65  93 N3        30.22S
LAS CRUCES     CLOUDY    66  64  94 SE5       30.24S
HOLLOMAN AFB   MOCLDY    69  64  83 S3        30.20F
ALAMOGORDO     MOCLDY    68  63  83 CALM      30.23S
T OR C         LGT RAIN  64  63  96 NE8       30.25S

$$
NMZ519>523-161000-
CENTRAL VALLEYS/CENTRAL HIGHLANDS

CITY           SKY/WX    TMP DP  RH WIND       PRES   REMARKS
ALBUQUERQUE    CLOUDY    66  56  70 E15       30.30F
DOUBLE EAGLE   CLOUDY    61  57  87 CALM      30.34F
CLINES CORNERS CLOUDY    55  53  93 E7        30.40F FOG
BELEN          FAIR      65  58  80 CALM      30.29S
SOCORRO        RAIN      64  64  97 S5        30.28S

$$
NMZ524>526-539-540-161000-
SOUTHCENTRAL MOUNTAINS

CITY           SKY/WX    TMP DP  RH WIND       PRES   REMARKS
RUIDOSO        NOT AVBL

$$
NMZ527>531-161000-
NORTHEAST HIGHLANDS/NORTHEAST PLAINS

CITY           SKY/WX    TMP DP  RH WIND       PRES   REMARKS
LAS VEGAS      CLOUDY    55  53  93 S12       30.40F
RATON          CLOUDY    55  51  86 CALM      30.35F
CLAYTON        CLOUDY    56  52  86 S7        30.31F

$$
NMZ532>537-161000-
EASTCENTRAL PLAINS

CITY           SKY/WX    TMP DP  RH WIND       PRES   REMARKS
TUCUMCARI      CLOUDY    62  55  77 NE5       30.29F
CANNON AFB     CLOUDY    61  57  88 NE9       30.29F FOG
CLOVIS AIRPORT   N/A     61  57  88 NE9       30.31F

$$
NMZ028-029-538-161000-
SOUTHEAST PLAINS

CITY           SKY/WX    TMP DP  RH WIND       PRES   REMARKS
ROSWELL        CLOUDY    68  64  87 CALM      30.23F
CARLSBAD       CLOUDY    70 N/A N/A CALM      30.20F
HOBBS          CLOUDY    66  66 100 CALM      30.25S


$$



USA.gov is the U.S. government's official web portal to all federal, state and local government web resources and services.